{"data":{"norad_id":52554,"epoch":"2026-05-25T00:23:32.863776Z","epoch_age_seconds":74424,"freshness":"FRESH","line1":"1 52554U 22051X   26145.01635259  .00001407  00000+0  10647-3 0  9992","line2":"2 52554  53.2147 151.4746 0000597  99.4855 260.6205 15.08836410222894","mean_motion":15.0883641,"eccentricity":5.97e-5,"inclination_deg":53.2147,"raan_deg":151.4746,"arg_perigee_deg":99.4855,"mean_anomaly_deg":260.6205,"bstar":0.00010647,"rev_number":22289,"period_min":95.437781753954,"perigee_km":539.34136406534,"apogee_km":540.16736029398,"semimajor_km":6917.8913621797,"source":"CELESTRAK","updated_at":"2026-05-25T13:38:17.165457Z"}}